Location: Newark
(44.4156°N, 12.1972°E)
Time: 03:51:42
(UTC+00:00)

STARLINK-1092 - Pass Details

Date: 01 February 2020
Orbit: 348 x 351 km, 53.0° (Epoch: 21 February)

Event Time Altitude Azimuth Distance (km) Brightness Sun altitude
Rises 17:14:45 0° 303° (WNW) 2,187 7.4 -10.1°
Reaches altitude 10° 17:16:46 10° 302° (WNW) 1,339 6.3 -10.5°
Maximum altitude 17:19:45 79° 216° (SW) 369 2.8 -11.0°
Drops below altitude 10° 17:22:43 10° 129° (SE) 1,332 5.2 -11.5°
Enters shadow 17:22:52 - 129° (SE) 1,396 5.3 -11.6°
